TimeCDT,TemperatureF,Dew PointF,Humidity,Sea Level PressureIn,VisibilityMPH,Wind Direction,Wind SpeedMPH,Gust SpeedMPH,PrecipitationIn,Events,Conditions,WindDirDegrees,DateUTC
12:15 AM,62.6,46.4,55,30.00,10.0,South,12.7,20.7,N/A,,Clear,190,2013-03-21 05:15:00
12:35 AM,62.6,46.4,55,30.00,10.0,South,12.7,19.6,N/A,,Scattered Clouds,190,2013-03-21 05:35:00
1:15 AM,62.6,46.4,55,29.98,10.0,South,16.1,20.7,N/A,,Scattered Clouds,180,2013-03-21 06:15:00
1:35 AM,60.8,46.4,59,29.98,10.0,South,13.8,-,N/A,,Scattered Clouds,170,2013-03-21 06:35:00
1:55 AM,60.8,46.4,59,29.96,10.0,South,15.0,21.9,N/A,,Scattered Clouds,180,2013-03-21 06:55:00
2:15 AM,60.8,46.4,59,29.95,10.0,South,17.3,24.2,N/A,,Clear,180,2013-03-21 07:15:00
2:35 AM,60.8,46.4,59,29.94,10.0,South,13.8,27.6,N/A,,Clear,180,2013-03-21 07:35:00
2:55 AM,59.0,46.4,63,29.94,10.0,South,11.5,21.9,N/A,,Clear,180,2013-03-21 07:55:00
3:15 AM,59.0,46.4,63,29.93,10.0,South,13.8,19.6,N/A,,Clear,170,2013-03-21 08:15:00
3:35 AM,59.0,46.4,63,29.93,10.0,South,9.2,18.4,N/A,,Clear,180,2013-03-21 08:35:00
3:55 AM,57.2,46.4,67,29.91,10.0,South,12.7,-,N/A,,Clear,180,2013-03-21 08:55:00
4:15 AM,57.2,46.4,67,29.90,10.0,South,11.5,-,N/A,,Clear,170,2013-03-21 09:15:00
4:35 AM,55.4,46.4,72,29.88,10.0,South,12.7,-,N/A,,Clear,180,2013-03-21 09:35:00
4:55 AM,55.4,46.4,72,29.87,10.0,South,13.8,-,N/A,,Clear,180,2013-03-21 09:55:00
5:15 AM,55.4,46.4,72,29.86,10.0,South,11.5,-,N/A,,Clear,180,2013-03-21 10:15:00
5:35 AM,55.4,46.4,72,29.85,10.0,South,11.5,19.6,N/A,,Clear,180,2013-03-21 10:35:00
5:55 AM,55.4,46.4,72,29.84,10.0,South,16.1,19.6,N/A,,Clear,180,2013-03-21 10:55:00
6:15 AM,55.4,46.4,72,29.84,10.0,South,16.1,20.7,N/A,,Clear,190,2013-03-21 11:15:00
6:35 AM,53.6,44.6,72,29.84,10.0,South,12.7,17.3,N/A,,Clear,180,2013-03-21 11:35:00
6:55 AM,53.6,44.6,72,29.84,10.0,South,12.7,18.4,N/A,,Clear,190,2013-03-21 11:55:00
7:15 AM,53.6,44.6,72,29.84,10.0,South,11.5,-,N/A,,Clear,190,2013-03-21 12:15:00
7:35 AM,53.6,44.6,72,29.84,10.0,South,12.7,-,N/A,,Clear,180,2013-03-21 12:35:00
7:55 AM,53.6,44.6,72,29.84,10.0,South,10.4,-,N/A,,Clear,190,2013-03-21 12:55:00
8:15 AM,53.6,44.6,72,29.84,10.0,South,11.5,-,N/A,,Clear,190,2013-03-21 13:15:00
8:35 AM,55.4,46.4,72,29.84,10.0,South,16.1,19.6,N/A,,Clear,190,2013-03-21 13:35:00
8:55 AM,57.2,46.4,67,29.83,10.0,South,18.4,25.3,N/A,,Clear,190,2013-03-21 13:55:00
9:15 AM,59.0,50.0,72,29.84,10.0,South,17.3,29.9,N/A,,Clear,190,2013-03-21 14:15:00
9:35 AM,59.0,50.0,72,29.83,10.0,South,21.9,31.1,N/A,,Clear,190,2013-03-21 14:35:00
9:55 AM,60.8,50.0,68,29.84,10.0,South,23.0,33.4,N/A,,Clear,190,2013-03-21 14:55:00
10:15 AM,60.8,51.8,72,29.84,10.0,South,25.3,31.1,N/A,,Clear,190,2013-03-21 15:15:00
10:35 AM,62.6,51.8,68,29.82,10.0,SSW,24.2,29.9,N/A,,Clear,200,2013-03-21 15:35:00
10:55 AM,64.4,51.8,64,29.82,10.0,South,21.9,29.9,N/A,,Clear,190,2013-03-21 15:55:00
11:15 AM,64.4,51.8,64,29.81,10.0,South,24.2,32.2,N/A,,Clear,190,2013-03-21 16:15:00
11:35 AM,64.4,51.8,64,29.81,10.0,SSW,20.7,27.6,N/A,,Clear,200,2013-03-21 16:35:00
11:55 AM,66.2,51.8,60,29.80,10.0,South,20.7,31.1,N/A,,Clear,190,2013-03-21 16:55:00
12:15 PM,68.0,51.8,56,29.79,10.0,South,23.0,29.9,N/A,,Clear,190,2013-03-21 17:15:00
12:35 PM,68.0,51.8,56,29.78,10.0,South,21.9,27.6,N/A,,Clear,190,2013-03-21 17:35:00
12:55 PM,69.8,51.8,53,29.77,10.0,SSW,25.3,29.9,N/A,,Clear,200,2013-03-21 17:55:00
1:15 PM,71.6,51.8,50,29.76,10.0,SSW,19.6,25.3,N/A,,Clear,200,2013-03-21 18:15:00
1:35 PM,73.4,51.8,47,29.74,10.0,South,18.4,28.8,N/A,,Clear,190,2013-03-21 18:35:00
1:55 PM,75.2,51.8,44,29.73,10.0,South,17.3,28.8,N/A,,Clear,190,2013-03-21 18:55:00
2:15 PM,75.2,50.0,41,29.71,10.0,SSW,17.3,28.8,N/A,,Clear,200,2013-03-21 19:15:00
2:35 PM,77.0,50.0,39,29.70,10.0,South,21.9,27.6,N/A,,Clear,190,2013-03-21 19:35:00
2:55 PM,77.0,48.2,36,29.69,10.0,SSW,16.1,26.5,N/A,,Clear,200,2013-03-21 19:55:00
3:15 PM,77.0,48.2,36,29.67,10.0,SSW,18.4,24.2,N/A,,Clear,210,2013-03-21 20:15:00
3:35 PM,78.8,50.0,36,29.67,10.0,South,17.3,26.5,N/A,,Clear,190,2013-03-21 20:35:00
3:55 PM,78.8,48.2,34,29.66,10.0,South,17.3,27.6,N/A,,Clear,190,2013-03-21 20:55:00
4:15 PM,78.8,48.2,34,29.66,10.0,SSW,15.0,26.5,N/A,,Clear,200,2013-03-21 21:15:00
4:35 PM,78.8,48.2,34,29.65,10.0,South,19.6,26.5,N/A,,Clear,190,2013-03-21 21:35:00
4:55 PM,78.8,48.2,34,29.64,10.0,SSW,17.3,24.2,N/A,,Clear,200,2013-03-21 21:55:00
5:15 PM,78.8,48.2,34,29.63,10.0,South,17.3,23.0,N/A,,Clear,190,2013-03-21 22:15:00
5:35 PM,78.8,48.2,34,29.63,10.0,SSW,23.0,27.6,N/A,,Clear,200,2013-03-21 22:35:00
5:55 PM,78.8,46.4,32,29.63,10.0,South,19.6,26.5,N/A,,Clear,190,2013-03-21 22:55:00
6:15 PM,78.8,48.2,34,29.63,10.0,South,17.3,24.2,N/A,,Clear,190,2013-03-21 23:15:00
6:35 PM,78.8,46.4,32,29.63,10.0,SSW,19.6,27.6,N/A,,Clear,200,2013-03-21 23:35:00
6:55 PM,78.8,48.2,34,29.62,10.0,South,16.1,23.0,N/A,,Clear,190,2013-03-21 23:55:00
7:15 PM,77.0,50.0,39,29.62,10.0,South,16.1,21.9,N/A,,Clear,190,2013-03-22 00:15:00
7:35 PM,73.4,50.0,44,29.63,10.0,South,15.0,-,N/A,,Clear,190,2013-03-22 00:35:00
7:55 PM,73.4,50.0,44,29.64,10.0,SSW,16.1,21.9,N/A,,Clear,200,2013-03-22 00:55:00
8:15 PM,71.6,51.8,50,29.64,10.0,SSW,13.8,-,N/A,,Clear,200,2013-03-22 01:15:00
8:35 PM,69.8,51.8,53,29.65,10.0,SSW,12.7,-,N/A,,Clear,200,2013-03-22 01:35:00
8:55 PM,69.8,51.8,53,29.66,10.0,SSW,10.4,-,N/A,,Clear,200,2013-03-22 01:55:00
9:15 PM,68.0,51.8,56,29.66,10.0,South,10.4,-,N/A,,Clear,190,2013-03-22 02:15:00
9:35 PM,68.0,51.8,56,29.67,10.0,SSW,8.1,-,N/A,,Clear,210,2013-03-22 02:35:00
9:55 PM,68.0,51.8,56,29.68,10.0,SSW,10.4,-,N/A,,Clear,200,2013-03-22 02:55:00
10:15 PM,68.0,51.8,56,29.68,10.0,SSW,12.7,-,N/A,,Clear,200,2013-03-22 03:15:00
10:35 PM,66.2,51.8,60,29.70,10.0,SSW,10.4,-,N/A,,Clear,210,2013-03-22 03:35:00
10:55 PM,66.2,53.6,64,29.70,10.0,SSW,8.1,-,N/A,,Clear,210,2013-03-22 03:55:00
11:15 PM,64.4,53.6,68,29.70,10.0,SW,9.2,-,N/A,,Clear,220,2013-03-22 04:15:00
11:35 PM,64.4,53.6,68,29.70,10.0,SSW,6.9,-,N/A,,Clear,210,2013-03-22 04:35:00
11:55 PM,64.4,53.6,68,29.70,10.0,SSW,5.8,-,N/A,,Clear,210,2013-03-22 04:55:00